FW3227 Weather Reports


Display with metric or nautical units.
time (UTC)temp
F
wind
direction
speed
MPH
gust
MPH
rain 1hr
in
rain 24hr
in
rain mn
in
humidity
%
barometer
mb
20260502224015 66 179 0.0 0.0 0.00 0.00 0.00 13 1013.7
20260502223515 67 179 0.0 1.0 0.00 0.00 0.00 12 1013.8
20260502223015 67 179 0.0 3.0 0.00 0.00 0.00 13 1013.9
20260502222515 67 179 0.0 4.0 0.00 0.00 0.00 14 1014.0
20260502222013 67 179 0.0 4.0 0.00 0.00 0.00 12 1014.1
20260502221513 67 177 0.0 1.0 0.00 0.00 0.00 11 1014.2
20260502221012 68 177 0.0 2.0 0.00 0.00 0.00 12 1014.3
20260502220511 68 177 0.0 3.0 0.00 0.00 0.00 12 1014.3
20260502220011 68 175 0.0 3.0 0.00 0.00 0.00 11 1014.5
20260502215510 68 168 0.0 4.0 0.00 0.00 0.00 11 1014.5
20260502215008 69 168 0.0 4.0 0.00 0.00 0.00 12 1014.6
20260502214507 69 168 0.0 7.0 0.00 0.00 0.00 12 1014.8
20260502214007 69 168 3.0 7.0 0.00 0.00 0.00 13 1014.7
20260502213506 69 228 0.0 3.0 0.00 0.00 0.00 15 1014.9
20260502213006 69 228 0.0 3.0 0.00 0.00 0.00 14 1015.0
20260502212505 69 228 0.0 4.0 0.00 0.00 0.00 14 1015.1
20260502212008 69 228 0.0 4.0 0.00 0.00 0.00 13 1015.3
20260502211507 69 199 0.0 4.0 0.00 0.00 0.00 14 1015.4
20260502211003 69 208 0.0 3.0 0.00 0.00 0.00 15 1015.5
20260502210502 68 206 0.0 6.0 0.00 0.00 0.00 14 1015.5
20260502210002 69 206 2.0 11.0 0.00 0.00 0.00 14 1015.6
20260502205501 69 200 4.0 11.0 0.00 0.00 0.00 15 1015.8
20260502205100 69 164 5.0 11.0 0.00 0.00 0.00 15 1015.8
20260502204601 69 207 0.0 0.0 0.00 0.00 0.00 15 1015.8
20260502204059 69 207 0.0 5.0 0.00 0.00 0.00 14 1015.9
20260502203600 69 207 0.0 6.0 0.00 0.00 0.00 14 1016.1
20260502203058 69 160 0.0 7.0 0.00 0.00 0.00 14 1016.1
20260502202558 69 198 0.0 8.0 0.00 0.00 0.00 15 1016.1
20260502202157 70 200 0.0 8.0 0.00 0.00 0.00 16 1016.2
20260502201603 69 181 0.0 6.0 0.00 0.00 0.00 15 1016.2
20260502201057 69 181 0.0 6.0 0.00 0.00 0.00 15 1016.4
20260502200556 69 181 0.0 6.0 0.00 0.00 0.00 16 1016.4
20260502200105 69 250 0.0 0.0 0.00 0.00 0.00 15 1016.5
20260502195554 69 251 0.0 3.0 0.00 0.00 0.00 16 1016.6
20260502195056 69 251 0.0 3.0 0.00 0.00 0.00 15 1016.7
20260502194559 69 251 0.0 3.0 0.00 0.00 0.00 14 1016.8
20260502194050 68 251 0.0 3.0 0.00 0.00 0.00 16 1016.9
20260502193549 68 251 0.0 0.0 0.00 0.00 0.00 16 1017.0
20260502193048 67 252 0.0 8.0 0.00 0.00 0.00 18 1017.0
20260502192550 67 254 0.0 11.0 0.00 0.00 0.00 17 1017.1
20260502192045 66 214 0.0 4.0 0.00 0.00 0.00 16 1017.1
20260502191545 65 181 0.0 10.0 0.00 0.00 0.00 18 1017.2
20260502191044 65 181 2.0 10.0 0.00 0.00 0.00 18 1017.2
20260502190544 66 191 0.0 9.0 0.00 0.00 0.00 17 1017.4
20260502190047 66 191 0.0 9.0 0.00 0.00 0.00 18 1017.5
20260502185541 67 195 1.0 8.0 0.00 0.00 0.00 18 1017.6
20260502185043 67 224 1.0 8.0 0.00 0.00 0.00 19 1017.7
20260502184549 67 241 0.0 7.0 0.00 0.00 0.00 19 1017.8
20260502184039 67 210 0.0 6.0 0.00 0.00 0.00 19 1017.9
20260502183538 66 210 0.0 6.0 0.00 0.00 0.00 18 1017.9
20260502183037 66 209 0.0 0.0 0.00 0.00 0.00 19 1018.0
20260502182536 65 209 0.0 1.0 0.00 0.00 0.00 19 1018.1
20260502182035 66 227 0.0 4.0 0.00 0.00 0.00 18 1018.2
20260502181535 66 241 0.0 4.0 0.00 0.00 0.00 18 1018.2
20260502181034 66 240 0.0 7.0 0.00 0.00 0.00 20 1018.3
20260502180533 66 247 1.0 8.0 0.00 0.00 0.00 18 1018.4
20260502164016 62 246 0.0 10.0 0.00 0.00 0.00 23 1019.4
20260502163513 62 246 3.0 10.0 0.00 0.00 0.00 23 1019.4
20260502163011 61 230 0.0 4.0 0.00 0.00 0.00 25 1019.3
20260502162512 60 230 0.0 4.0 0.00 0.00 0.00 24 1019.3
20260502162012 60 230 0.0 4.0 0.00 0.00 0.00 24 1019.4
20260502161507 60 230 0.0 10.0 0.00 0.00 0.00 24 1019.3
20260502161005 60 230 1.0 10.0 0.00 0.00 0.00 25 1019.4
20260502160506 60 227 1.0 7.0 0.00 0.00 0.00 27 1019.5
20260502152054 56 208 0.0 4.0 0.00 0.00 0.00 33 1020.0
20260502151559 55 208 0.0 1.0 0.00 0.00 0.00 34 1020.1
20260502151053 55 199 0.0 0.0 0.00 0.00 0.00 35 1020.1
20260502150547 54 199 0.0 0.0 0.00 0.00 0.00 34 1020.1
20260502130512 37 198 0.0 0.0 0.00 0.00 0.00 60 1020.4
20260502123503 33 198 0.0 0.0 0.00 0.00 0.00 68 1020.1
20260502123001 33 198 0.0 0.0 0.00 0.00 0.00 67 1020.0
20260502122502 33 198 0.0 0.0 0.00 0.00 0.00 66 1020.0
20260502122001 32 198 0.0 0.0 0.00 0.00 0.00 67 1020.0
20260502121610 32 198 0.0 0.0 0.00 0.00 0.00 67 1019.9
20260502121501 32 198 0.0 0.0 0.00 0.00 0.00 67 1019.9
20260502121104 32 198 0.0 0.0 0.00 0.00 0.00 67 1019.9
20260502120600 32 198 0.0 0.0 0.00 0.00 0.00 67 1019.9
20260502120104 32 198 0.0 0.0 0.00 0.00 0.00 68 1019.9
20260502115603 32 198 0.0 0.0 0.00 0.00 0.00 68 1019.9
20260502115158 32 198 0.0 0.0 0.00 0.00 0.00 67 1019.8
20260502114557 32 198 0.0 0.0 0.00 0.00 0.00 68 1019.9
20260502114057 32 198 0.0 0.0 0.00 0.00 0.00 69 1019.8
20260502113559 32 198 0.0 0.0 0.00 0.00 0.00 69 1019.8
20260502113057 32 198 0.0 0.0 0.00 0.00 0.00 70 1019.9
20260502112556 32 198 0.0 0.0 0.00 0.00 0.00 69 1019.9
20260502112057 32 198 0.0 0.0 0.00 0.00 0.00 69 1019.9
20260502111602 32 198 0.0 0.0 0.00 0.00 0.00 69 1020.0
20260502111056 32 198 0.0 0.0 0.00 0.00 0.00 69 1020.0
20260502110559 32 198 0.0 0.0 0.00 0.00 0.00 70 1020.0
20260502110101 32 198 0.0 0.0 0.00 0.00 0.00 69 1020.0
20260502105556 31 198 0.0 0.0 0.00 0.00 0.00 70 1020.0
20260502105055 31 198 0.0 0.0 0.00 0.00 0.00 70 1020.0
20260502104555 31 198 0.0 0.0 0.00 0.00 0.00 70 1019.9
20260502104055 31 198 0.0 0.0 0.00 0.00 0.00 71 1020.0
20260502103555 31 198 0.0 0.0 0.00 0.00 0.00 70 1020.0
20260502103104 31 198 0.0 0.0 0.00 0.00 0.00 70 1020.0
20260502102554 31 198 0.0 0.0 0.00 0.00 0.00 71 1019.9
20260502102053 31 198 0.0 0.0 0.00 0.00 0.00 71 1019.9
20260502101619 31 198 0.0 0.0 0.00 0.00 0.00 72 1019.8
20260502101052 31 198 0.0 0.0 0.00 0.00 0.00 72 1019.7
20260502100554 31 198 0.0 0.0 0.00 0.00 0.00 72 1019.7
20260502100105 31 198 0.0 0.0 0.00 0.00 0.00 71 1019.6
20260502091048 31 198 0.0 0.0 0.00 0.00 0.00 71 1019.5
20260502090551 31 198 0.0 0.0 0.00 0.00 0.00 71 1019.4
20260502071533 34 198 0.0 0.0 0.00 0.00 0.00 66 1019.7
20260502071032 35 198 0.0 0.0 0.00 0.00 0.00 67 1019.7
20260502070535 35 198 0.0 0.0 0.00 0.00 0.00 65 1019.7
20260502070033 35 198 0.0 0.0 0.00 0.00 0.00 66 1019.7
20260502065531 35 198 0.0 0.0 0.00 0.00 0.00 65 1019.7
20260502065028 35 198 0.0 0.0 0.00 0.00 0.00 65 1019.7
20260502064533 36 198 0.0 0.0 0.00 0.00 0.00 65 1019.7
20260502064027 36 198 0.0 0.0 0.00 0.00 0.00 65 1019.7
20260502063527 36 198 0.0 0.0 0.00 0.00 0.00 65 1019.7
20260502063025 36 198 0.0 0.0 0.00 0.00 0.00 64 1019.6
20260502062525 37 198 0.0 0.0 0.00 0.00 0.00 64 1019.6
20260502062025 37 198 0.0 0.0 0.00 0.00 0.00 64 1019.6
20260502061522 37 198 0.0 0.0 0.00 0.00 0.00 64 1019.6
20260502061022 37 198 0.0 0.0 0.00 0.00 0.00 63 1019.6
20260502060521 37 198 0.0 0.0 0.00 0.00 0.00 64 1019.6
20260502060020 37 198 0.0 0.0 0.00 0.00 0.00 63 1019.6
20260502055520 38 198 0.0 0.0 0.00 0.00 0.00 62 1019.6
20260502055020 38 198 0.0 0.0 0.00 0.00 0.00 62 1019.6
20260502054519 38 198 0.0 0.0 0.00 0.00 0.00 62 1019.6
20260502054018 38 198 0.0 0.0 0.00 0.00 0.00 64 1019.6
20260502053518 38 198 0.0 0.0 0.00 0.00 0.00 60 1019.6
20260502053018 38 198 0.0 0.0 0.00 0.00 0.00 60 1019.6
20260502052520 38 198 0.0 0.0 0.00 0.00 0.00 57 1019.6
20260502052018 38 198 0.0 0.0 0.00 0.00 0.00 57 1019.6
20260502051519 39 198 0.0 0.0 0.00 0.00 0.00 58 1019.6
20260502051018 39 198 0.0 0.0 0.00 0.00 0.00 56 1019.5
20260502050518 39 198 0.0 0.0 0.00 0.00 0.00 57 1019.5
20260502050017 39 198 0.0 0.0 0.00 0.00 0.00 53 1019.5
20260502045518 39 198 0.0 0.0 0.00 0.01 0.00 53 1019.4
20260502045017 39 198 0.0 0.0 0.00 0.01 0.00 53 1019.3
20260502044516 39 198 0.0 0.0 0.00 0.01 0.00 54 1019.3
20260502044016 39 198 0.0 0.0 0.00 0.01 0.00 54 1019.3
20260502043516 39 198 0.0 0.0 0.00 0.01 0.00 52 1019.3
20260502043018 40 198 0.0 0.0 0.00 0.01 0.00 51 1019.3
20260502042517 40 198 0.0 0.0 0.00 0.01 0.00 51 1019.1
20260502042016 41 198 0.0 0.0 0.00 0.01 0.00 51 1019.1
20260502041516 41 198 0.0 0.0 0.00 0.01 0.00 50 1019.1
20260502041015 42 198 0.0 0.0 0.00 0.01 0.00 49 1019.1
20260502040519 42 198 0.0 0.0 0.00 0.01 0.00 50 1019.0
20260502040022 43 198 0.0 0.0 0.00 0.01 0.00 50 1019.0
20260502035516 43 198 0.0 0.0 0.00 0.02 0.00 47 1018.9
20260502035015 43 198 0.0 0.0 0.00 0.02 0.00 41 1018.9
20260502034516 43 198 0.0 0.0 0.00 0.02 0.00 42 1018.8
20260502034018 44 198 0.0 0.0 0.00 0.02 0.00 42 1018.8
20260502033514 44 198 0.0 0.0 0.00 0.02 0.00 42 1018.7
20260502033015 44 198 0.0 0.0 0.00 0.02 0.00 41 1018.6
20260502032516 44 198 0.0 0.0 0.00 0.02 0.00 41 1018.5
20260502032015 44 198 0.0 0.0 0.00 0.02 0.00 41 1018.5
20260502031514 45 198 0.0 0.0 0.00 0.02 0.00 41 1018.3
20260502031014 45 198 0.0 0.0 0.00 0.02 0.00 41 1018.3
20260502030517 45 198 0.0 0.0 0.00 0.02 0.00 41 1018.3
20260502030015 46 198 0.0 0.0 0.00 0.02 0.00 41 1018.2
20260502025515 46 198 0.0 0.0 0.00 0.02 0.00 40 1018.1
20260502025013 46 198 0.0 0.0 0.00 0.02 0.00 40 1018.0
20260502024514 47 198 0.0 0.0 0.00 0.02 0.00 39 1017.9
20260502024015 47 198 0.0 0.0 0.00 0.02 0.00 39 1017.9
20260502023513 47 198 0.0 0.0 0.00 0.02 0.00 37 1017.8
20260502023013 48 198 0.0 0.0 0.00 0.02 0.00 37 1017.8
20260502022513 48 198 0.0 0.0 0.00 0.02 0.00 35 1017.6
20260502022016 48 198 0.0 0.0 0.00 0.02 0.00 35 1017.6
20260502021512 49 198 0.0 0.0 0.00 0.02 0.00 35 1017.6
20260502021012 50 198 0.0 0.0 0.00 0.02 0.00 35 1017.5
20260502020513 50 198 0.0 0.0 0.00 0.02 0.00 34 1017.5
20260502020017 51 198 0.0 0.0 0.00 0.02 0.00 32 1017.4
20260502015512 51 198 0.0 0.0 0.00 0.02 0.00 31 1017.5
20260502015016 51 198 0.0 0.0 0.00 0.02 0.00 31 1017.4
20260502014511 52 198 0.0 0.0 0.00 0.02 0.00 28 1017.4
20260502014011 52 198 0.0 1.0 0.00 0.02 0.00 28 1017.3
20260502013511 52 198 0.0 1.0 0.00 0.02 0.00 27 1017.3
20260502013011 52 198 0.0 1.0 0.00 0.02 0.00 28 1017.2
20260502012510 53 198 0.0 0.0 0.00 0.02 0.00 28 1017.2
20260502012015 53 198 0.0 1.0 0.00 0.02 0.00 26 1017.2
20260502011533 53 198 0.0 1.0 0.00 0.02 0.00 26 1017.2
20260502011010 53 198 0.0 0.0 0.00 0.02 0.00 26 1017.2
20260502010509 53 198 0.0 0.0 0.00 0.02 0.00 25 1017.2
20260502010010 53 198 0.0 0.0 0.00 0.02 0.00 25 1017.0
20260502005509 53 198 0.0 0.0 0.00 0.02 0.00 26 1017.1
20260502005009 54 198 0.0 0.0 0.00 0.02 0.00 24 1017.1
20260502004509 54 198 0.0 2.0 0.00 0.02 0.00 23 1017.1
20260502004009 54 198 0.0 3.0 0.00 0.02 0.00 24 1017.1
20260502003508 54 193 0.0 3.0 0.00 0.02 0.00 24 1017.2
20260502003007 54 194 0.0 1.0 0.00 0.02 0.00 23 1017.1
20260502002514 54 194 0.0 4.0 0.00 0.02 0.00 23 1017.1
20260502002008 54 194 0.0 4.0 0.00 0.02 0.00 23 1017.1
20260502001509 54 254 0.0 4.0 0.00 0.02 0.00 22 1017.1
20260502001007 55 256 0.0 4.0 0.00 0.02 0.00 23 1017.1
20260502000506 55 225 0.0 3.0 0.00 0.02 0.00 22 1017.2
20260502000009 55 217 0.0 3.0 0.00 0.02 0.00 22 1017.2
20260501235509 55 192 0.0 3.0 0.00 0.02 0.00 23 1017.2
20260501235007 55 199 0.0 3.0 0.00 0.02 0.00 23 1017.1
20260501234505 55 253 0.0 3.0 0.00 0.02 0.00 22 1017.2
20260501234104 55 269 0.0 10.0 0.00 0.02 0.00 22 1017.2
20260501233504 55 266 2.0 8.0 0.00 0.02 0.00 22 1017.2
20260501233005 55 285 1.0 6.0 0.00 0.02 0.00 22 1017.2
20260501232507 55 284 0.0 2.0 0.00 0.02 0.00 22 1017.3
20260501232003 55 285 0.0 0.0 0.00 0.02 0.00 21 1017.3
20260501231503 55 285 0.0 6.0 0.00 0.02 0.00 23 1017.3
20260501231002 56 285 0.0 6.0 0.00 0.02 0.00 22 1017.3
20260501230504 56 292 0.0 7.0 0.00 0.02 0.00 23 1017.3
20260501230002 56 292 2.0 7.0 0.00 0.02 0.00 23 1017.3
20260501225500 56 264 0.0 4.0 0.00 0.02 0.00 25 1017.3
20260501225101 56 264 0.0 9.0 0.00 0.02 0.00 27 1017.4
20260501224604 56 264 1.0 9.0 0.00 0.02 0.00 25 1017.4